Location: Unspecified
(0.0000°N, 0.0000°E)
Time: 06:21:36
(UTC+00:00)

GRACE-FO 2 - Visible Passes

Search period start: 07 December 2019 00:00
Search period end: 17 December 2019 00:00
Orbit: 484 x 504 km, 89.0° (Epoch: 06 December)

Date Brightness Start Highest point End Pass type
(mag) Time Alt. Az. Time Alt. Az. Time Alt. Az.
09 Dec 6.2 05:20:56 10° SSE 05:24:22 40° E 05:27:50 10° NNE visible
10 Dec 7.4 05:00:00 10° SE 05:02:48 21° E 05:05:36 10° NE visible
10 Dec 7.9 18:24:36 10° WNW 18:26:17 13° W 18:27:58 10° WSW visible
11 Dec 8.0 04:40:08 10° ESE 04:41:13 11° E 04:42:19 10° ENE visible
14 Dec 5.3 05:07:07 10° SSE 05:10:44 58° E 05:14:21 10° N visible
15 Dec 6.7 04:45:56 10° SSE 04:49:09 29° E 04:52:23 10° NNE visible
16 Dec 7.6 04:25:20 10° SE 04:27:35 16° E 04:29:50 10° NE visible
